Simultaneous Nadir Overpasses (SNOs) Predictions

Prediction of SNOs between AQUA and METOP-B Satellite Orbit:

Table of predicted SNOs for the next 14.0 days since TLE Epoch: 9/2/2016
Index Date (AQUA) Time (AQUA) Lat,Lon (AQUA) SZA (AQUA ) Date (METOP-B) Time (METOP-B) Lat,Lon (METOP-B) SZA (METOP-B ) Distance(km) Time Diff (sec)
1 09/04/2016 22:49:09 -73.66, 12.21 113.11 09/04/2016 22:47:58 -73.65, 12.13 113.11 2.93 71
2 09/04/2016 23:38:38 73.75, 179.66 67.00 09/04/2016 23:38:36 73.72, 179.63 66.98 3.34 2
3 09/05/2016 00:28:05 -73.81, -12.84 112.92 09/05/2016 00:29:16 -73.83, -12.79 112.91 2.60 71
4 09/07/2016 18:23:24 -73.66, 78.65 112.06 09/07/2016 18:22:22 -73.66, 78.56 112.05 2.79 62
5 09/07/2016 19:12:53 73.75,-113.91 68.05 09/07/2016 19:13:00 73.73,-113.94 68.03 2.30 7
6 09/07/2016 20:02:25 -74.07, 53.02 111.60 09/07/2016 20:03:35 -74.09, 54.25 111.62 37.65 70
7 09/10/2016 13:57:38 -73.67, 145.06 110.99 09/10/2016 13:56:45 -73.67, 144.99 110.98 2.31 53
8 09/10/2016 14:47:07 73.76, -47.50 69.12 09/10/2016 14:47:23 73.74, -47.52 69.10 2.66 16
9 09/10/2016 15:36:46 -74.44, 118.59 110.15 09/10/2016 15:37:52 -74.39, 121.43 110.27 84.99 66
10 09/13/2016 09:31:53 -73.70,-148.55 109.90 09/13/2016 09:31:09 -73.68,-148.59 109.91 2.37 44
11 09/13/2016 10:21:21 73.74, 19.00 70.16 09/13/2016 10:21:47 73.74, 18.90 70.17 3.21 26
12 09/16/2016 05:06:07 -73.68, -82.07 108.84 09/16/2016 05:05:33 -73.68, -82.18 108.84 3.47 34
13 09/16/2016 05:55:36 73.77, 85.36 71.27 09/16/2016 05:56:10 73.80, 85.43 71.29 3.33 34




NCC Satellite Simultaneous Nadir Overpasses (SNOs) Prediction Service
